"Timestamp","TZ","WindDir_Mean (deg)","WindSpd_Mean (km/h)","WindSpd_Min (km/h)","WindSpd_Max (km/h)","Temp_Mean (deg)","RH_Mean (%)","MSLP_Mean (hPa)","Rain_Acc (mm)","Rain_Intensity (mm/h)","Hail_Acc (hits/cm2)","Hail_Intensity (hits/cm2hr)","Solar_Mean (W/m2)"
2018/06/13 00:00:00.000,n,254,0.72,0.36,0.72,15.6,77.6,1015.42,0,0,0,0,0.030479
2018/06/13 00:01:00.000,n,20,1.44,1.08,1.44,15.5,77.7,1015.42,0,0,0,0,0.025253
2018/06/13 00:02:00.000,n,64,2.16,0.36,3.24,15.5,78,1015.42,0,0,0,0,0.028725
2018/06/13 00:03:00.000,n,41,2.88,2.88,3.24,15.4,78.3,1015.32,0,0,0,0,0.028725
2018/06/13 00:04:00.005,n,90,1.44,1.08,2.16,15.3,78.7,1015.32,0,0,0,0,0.025253
2018/06/13 00:05:00.003,n,140,1.08,0.72,1.44,15.3,78.9,1015.32,0,0,0,0,0.020905
2018/06/13 00:06:00.000,n,122,2.16,1.8,2.16,15.3,79.2,1015.32,0,0,0,0,0.02697
2018/06/13 00:07:00.000,n,159,2.88,2.52,2.88,15.2,79.6,1015.22,0,0,0,0,0.024338
2018/06/13 00:08:00.010,n,175,2.16,1.8,2.52,15.2,79.7,1015.22,0,0,0,0,0.021744
2018/06/13 00:09:00.007,n,140,1.08,0.72,1.44,15.2,79.6,1015.22,0,0,0,0,0.020905
2018/06/13 00:10:00.000,n,111,1.08,1.08,1.08,15.1,79.6,1015.22,0,0,0,0,0.01915
2018/06/13 00:11:00.001,n,98,1.44,1.44,1.8,15.1,79.8,1015.22,0,0,0,0,0.027046
2018/06/13 00:12:00.000,n,48,1.8,1.08,2.52,15.1,80,1015.22,0,0,0,0,0.028763
2018/06/13 00:13:00.000,n,102,1.44,1.44,1.8,15,80,1015.22,0,0,0,0,0.028763
2018/06/13 00:14:00.004,n,112,1.44,1.44,1.8,15,80.1,1015.22,0,0,0,0,0.028763
2018/06/13 00:15:00.002,n,117,1.8,1.44,2.16,15,80.3,1015.12,0,0,0,0,0.027046
2018/06/13 00:16:00.000,n,23,1.8,0.72,2.52,14.9,80.5,1015.12,0,0,0,0,0.029602
2018/06/13 00:17:00.013,n,20,1.44,1.08,2.16,14.9,80.5,1015.12,0,0,0,0,0.027885
2018/06/13 00:18:00.010,n,25,0.72,0.36,1.08,14.9,80.7,1015.12,0,0,0,0,0.028763
2018/06/13 00:19:00.000,n,52,1.8,1.44,1.8,14.8,81,1015.02,0,0,0,0,0.026131
2018/06/13 00:20:00.000,n,171,0.36,0.36,0.72,14.8,81.1,1015.02,0,0,0,0,0.026131
2018/06/13 00:21:00.000,n,106,1.08,0.72,1.44,14.8,81.1,1015.02,0,0,0,0,0.025253
2018/06/13 00:22:00.000,n,104,2.16,1.44,2.16,14.7,81.2,1015.02,0,0,0,0,0.025253
2018/06/13 00:23:00.000,n,115,1.44,1.44,1.8,14.7,81.4,1015.02,0,0,0,0,0.021782
2018/06/13 00:24:00.007,n,157,2.88,2.52,2.88,14.7,81.5,1015.02,0,0,0,0,0.023537
2018/06/13 00:25:00.004,n,152,2.88,2.52,3.24,14.6,81.9,1015.02,0,0,0,0,0.026131
2018/06/13 00:26:00.001,n,152,3.24,2.88,3.24,14.6,82,1015.02,0,0,0,0,0.021782
2018/06/13 00:27:00.015,n,165,2.88,2.88,3.24,14.6,82,1015.02,0,0,0,0,0.020065
2018/06/13 00:28:00.000,n,164,2.52,2.16,2.88,14.6,82.1,1015.02,0,0,0,0,0.026131
2018/06/13 00:29:00.000,n,185,2.88,2.52,3.24,14.6,82.2,1015.02,0,0,0,0,0.033951
2018/06/13 00:30:00.000,n,159,2.16,1.44,2.52,14.6,82.2,1014.92,0,0,0,0,0.030479
2018/06/13 00:31:00.003,n,168,3.6,3.6,3.6,14.6,82.2,1014.92,0,0,0,0,0.027885
2018/06/13 00:32:00.000,n,163,1.8,1.08,2.52,14.6,82.3,1014.92,0,0,0,0,0.032234
2018/06/13 00:33:00.000,n,168,2.16,2.16,2.52,14.5,82.3,1014.92,0,0,0,0,0.024376
2018/06/13 00:34:00.011,n,142,2.16,1.8,2.52,14.5,82.3,1014.92,0,0,0,0,0.029602
2018/06/13 00:35:00.008,n,90,1.08,0.72,1.44,14.5,82.3,1014.92,0,0,0,0,0.024376
2018/06/13 00:36:00.005,n,223,1.44,1.08,1.8,14.5,82.2,1014.92,0,0,0,0,0.025253
2018/06/13 00:37:00.002,n,192,0.72,0.36,1.08,14.4,82.2,1014.92,0,0,0,0,0.022659
2018/06/13 00:38:00.000,n,154,1.8,1.44,1.8,14.4,82.4,1014.92,0,0,0,0,0.020027
2018/06/13 00:39:00.000,n,159,2.16,1.44,2.16,14.4,82.6,1014.92,0,0,0,0,0.023499
2018/06/13 00:40:00.000,n,187,2.88,2.88,3.24,14.4,82.7,1014.92,0,0,0,0,0.020905
2018/06/13 00:41:00.006,n,193,3.6,3.6,3.6,14.4,82.8,1014.92,0,0,0,0,0.024376
2018/06/13 00:42:00.003,n,192,5.04,4.68,5.4,14.4,83,1014.92,0,0,0,0,0.022659
2018/06/13 00:43:00.000,n,183,6.48,6.12,6.48,14.4,82.9,1014.92,0,0,0,0,0.01915
2018/06/13 00:44:00.014,n,188,7.92,7.2,8.64,14.4,82.9,1014.92,0,0,0,0,0.028725
2018/06/13 00:45:00.008,n,175,3.96,3.24,5.04,14.4,82.8,1014.92,0,0,0,0,0.030479
2018/06/13 00:46:00.000,n,168,2.52,2.16,2.88,14.4,82.5,1014.92,0,0,0,0,0.028725
2018/06/13 00:47:00.002,n,199,4.68,4.68,5.04,14.4,82.4,1014.82,0,0,0,0,0.028725
2018/06/13 00:48:00.000,n,191,2.88,2.16,3.6,14.4,82.4,1014.82,0,0,0,0,0.028725
2018/06/13 00:49:00.000,n,32,6.48,5.4,6.84,14.4,82,1014.82,0,0,0,0,0.030479
2018/06/13 00:50:00.000,n,44,3.6,2.52,4.32,14.3,82.1,1014.82,0,0,0,0,0.025253
2018/06/13 00:51:00.006,n,38,2.16,0.36,3.96,14.3,82.3,1014.72,0,0,0,0,0.025253
2018/06/13 00:52:00.003,n,19,1.08,0.72,1.8,14.3,82.4,1014.72,0,0,0,0,0.022621
2018/06/13 00:53:00.000,n,27,0.36,0.36,0.36,14.2,82.3,1014.72,0,0,0,0,0.024376
2018/06/13 00:54:00.013,n,231,2.52,1.8,2.88,14.2,82.4,1014.82,0,0,0,0,0.024376
2018/06/13 00:55:00.000,n,235,4.32,3.96,5.04,14.2,82.7,1014.82,0,0,0,0,0.026131
2018/06/13 00:56:00.000,n,233,3.96,3.24,4.32,14.2,82.9,1014.82,0,0,0,0,0.026131
2018/06/13 00:57:00.005,n,216,3.6,2.88,3.96,14.2,82.8,1014.82,0,0,0,0,0.025253
2018/06/13 00:58:00.002,n,179,2.52,2.52,2.88,14.2,82.9,1014.82,0,0,0,0,0.023499
2018/06/13 00:59:00.000,n,205,3.6,3.24,3.96,14.2,82.9,1014.72,0,0,0,0,0.02697
2018/06/13 01:00:00.000,n,195,4.32,3.24,5.4,14.2,83.1,1014.72,0,0,0,0,0.020905
2018/06/13 01:01:00.010,n,188,4.32,3.6,5.04,14.2,83.3,1014.72,0,0,0,0,0.021782
2018/06/13 01:02:00.007,n,182,3.96,3.6,3.96,14.2,83.2,1014.72,0,0,0,0,0.020905
2018/06/13 01:03:00.004,n,189,5.04,4.68,5.4,14.2,83.2,1014.72,0,0,0,0,0.020905
2018/06/13 01:04:00.002,n,148,1.44,1.08,1.8,14.2,83.2,1014.72,0,0,0,0,0.024376
2018/06/13 01:05:00.000,n,76,2.16,1.44,2.52,14.2,82.9,1014.72,0,0,0,0,0.020027
2018/06/13 01:06:00.000,n,43,3.6,2.88,3.96,14.2,82.7,1014.72,0,0,0,0,0.020027
2018/06/13 01:07:00.000,n,8,2.16,1.44,3.24,14.1,82.8,1014.72,0,0,0,0,0.027885
2018/06/13 01:08:00.003,n,349,2.52,1.8,3.24,14.1,83,1014.72,0,0,0,0,0.030479
2018/06/13 01:09:00.000,n,278,0.36,0,0.72,14.1,83.2,1014.72,0,0,0,0,0.031319
2018/06/13 01:10:00.000,n,149,0.72,0.36,1.44,14.1,83.1,1014.72,0,0,0,0,0.033073
2018/06/13 01:11:00.011,n,109,2.16,2.16,2.52,14.1,83.2,1014.72,0,0,0,0,0.029602
2018/06/13 01:12:00.009,n,83,1.44,1.44,1.44,14.1,83.2,1014.72,0,0,0,0,0.035667
2018/06/13 01:13:00.000,n,131,1.44,1.08,1.44,14,83.2,1014.72,0,0,0,0,0.0383
2018/06/13 01:14:00.002,n,161,2.88,1.8,3.24,14,83.4,1014.72,0,0,0,0,0.034828
2018/06/13 01:15:00.000,n,169,4.68,4.32,5.04,14,83.7,1014.72,0,0,0,0,0.028725
2018/06/13 01:16:00.000,n,190,4.32,3.6,4.68,14.1,83.9,1014.72,0,0,0,0,0.029602
2018/06/13 01:17:00.000,n,186,5.04,3.96,6.48,14.1,83.9,1014.72,0,0,0,0,0.027885
2018/06/13 01:18:00.007,n,160,3.96,3.6,4.32,14.1,84,1014.72,0,0,0,0,0.02697
2018/06/13 01:19:00.004,n,123,3.96,2.88,4.68,14.1,83.9,1014.62,0,0,0,0,0.025253
2018/06/13 01:20:00.002,n,131,1.44,1.44,1.44,14.1,83.9,1014.62,0,0,0,0,0.029602
2018/06/13 01:21:00.015,n,56,2.88,1.8,3.6,14.1,83.7,1014.62,0,0,0,0,0.026093
2018/06/13 01:22:00.000,n,51,2.16,1.8,3.24,14,83.5,1014.62,0,0,0,0,0.02697
2018/06/13 01:23:00.000,n,55,2.16,2.16,2.52,14,83.7,1014.62,0,0,0,0,0.026093
2018/06/13 01:24:00.000,n,67,3.24,2.88,3.24,14,83.7,1014.62,0,0,0,0,0.032234
2018/06/13 01:25:00.002,n,91,2.52,1.8,2.88,14,83.9,1014.62,0,0,0,0,0.031319
2018/06/13 01:26:00.000,n,76,3.6,3.24,3.96,13.9,84,1014.62,0,0,0,0,0.030479
2018/06/13 01:27:00.000,n,99,3.6,3.24,3.6,13.9,84,1014.62,0,0,0,0,0.024376
2018/06/13 01:28:00.009,n,116,1.44,0.72,2.52,13.9,84.1,1014.62,0,0,0,0,0.023499
2018/06/13 01:29:00.006,n,153,3.6,3.6,4.32,13.9,84.3,1014.52,0,0,0,0,0.024376
2018/06/13 01:30:00.002,n,142,4.68,3.96,4.68,13.9,84.5,1014.52,0,0,0,0,0.020027
2018/06/13 01:31:00.000,n,143,3.6,3.6,3.96,13.8,84.4,1014.52,0,0,0,0,0.026093
2018/06/13 01:32:00.000,n,133,3.24,3.24,3.24,13.8,84.6,1014.52,0,0,0,0,0.027046
2018/06/13 01:33:00.000,n,152,2.88,2.16,3.6,13.8,84.7,1014.52,0,0,0,0,0.034027
2018/06/13 01:34:00.006,n,46,2.52,1.44,3.24,13.8,84.8,1014.52,0,0,0,0,0.031395
2018/06/13 01:35:00.003,n,50,3.6,3.6,3.96,13.8,84.8,1014.52,0,0,0,0,0.030518
2018/06/13 01:36:00.000,n,56,3.96,3.24,4.32,13.7,84.9,1014.42,0,0,0,0,0.030518
2018/06/13 01:37:00.000,n,31,3.96,3.6,3.96,13.7,85,1014.42,0,0,0,0,0.030518
2018/06/13 01:38:00.011,n,32,5.4,5.04,6.12,13.7,85,1014.42,0,0,0,0,0.031395
2018/06/13 01:39:00.008,n,23,4.32,3.96,4.32,13.7,85.1,1014.42,0,0,0,0,0.030518
2018/06/13 01:40:00.000,n,43,2.52,2.16,2.88,13.7,85.3,1014.42,0,0,0,0,0.035744
2018/06/13 01:41:00.001,n,88,1.08,0.72,1.44,13.7,85.5,1014.42,0,0,0,0,0.034866
2018/06/13 01:42:00.000,n,200,1.08,0.72,1.44,13.7,85.3,1014.42,0,0,0,0,0.026169
2018/06/13 01:43:00.000,n,209,5.04,4.68,5.04,13.7,85.3,1014.52,0,0,0,0,0.024414
2018/06/13 01:44:00.000,n,193,6.84,6.12,7.56,13.7,85.7,1014.62,0,0,0,0,0.024414
2018/06/13 01:45:00.009,n,188,4.68,4.32,5.04,13.7,85.5,1014.62,0,0,0,0,0.023537
2018/06/13 01:46:00.006,n,193,3.96,3.6,4.32,13.7,85.3,1014.62,0,0,0,0,0.023537
2018/06/13 01:47:00.003,n,206,6.84,5.76,7.56,13.7,85.4,1014.62,0,0,0,0,0.027046
2018/06/13 01:48:00.000,n,221,6.48,5.76,8.28,13.7,85.6,1014.62,0,0,0,0,0.026169
2018/06/13 01:49:00.000,n,190,7.2,6.84,7.56,13.7,85.6,1014.52,0,0,0,0,0.027885
2018/06/13 01:50:00.000,n,190,5.04,5.04,5.4,13.7,85.8,1014.52,0,0,0,0,0.025253
2018/06/13 01:51:00.000,n,79,0.72,0.36,1.08,13.8,85.6,1014.52,0,0,0,0,0.027885
2018/06/13 01:52:00.005,n,29,4.32,1.44,6.12,13.8,85.5,1014.42,0,0,0,0,0.025253
2018/06/13 01:53:00.002,n,44,2.88,1.44,3.96,13.7,85.4,1014.52,0,0,0,0,0.02182
2018/06/13 01:54:00.000,n,48,2.52,1.8,3.24,13.7,85.4,1014.52,0,0,0,0,0.023537
2018/06/13 01:55:00.012,n,30,0.36,0,0.36,13.7,85.3,1014.52,0,0,0,0,0.023537
2018/06/13 01:56:00.010,n,209,3.24,2.88,3.6,13.7,85.2,1014.52,0,0,0,0,0.020065
2018/06/13 01:57:00.006,n,189,2.16,1.44,2.88,13.7,85.2,1014.52,0,0,0,0,0.020905
2018/06/13 01:58:00.000,n,155,2.52,2.16,2.52,13.7,85.4,1014.42,0,0,0,0,0.02182
2018/06/13 01:59:00.001,n,147,5.4,5.04,5.76,13.7,85.4,1014.42,0,0,0,0,0.023537
2018/06/13 02:00:00.000,n,155,8.64,8.28,9,13.6,85.3,1014.42,0,0,0,0,0.02182
2018/06/13 02:01:00.000,n,147,4.68,4.68,5.04,13.6,85.3,1014.42,0,0,0,0,0.02182
2018/06/13 02:02:00.000,n,181,5.04,4.68,5.04,13.6,85.3,1014.42,0,0,0,0,0.025253
2018/06/13 02:03:00.006,n,189,6.48,6.48,6.84,13.6,85.5,1014.42,0,0,0,0,0.02182
2018/06/13 02:04:00.004,n,181,5.76,5.4,6.48,13.5,85.5,1014.42,0,0,0,0,0.023537
2018/06/13 02:05:00.001,n,199,4.32,3.6,4.68,13.5,85.6,1014.42,0,0,0,0,0.020905
2018/06/13 02:06:00.014,n,253,4.32,3.96,4.68,13.5,85.5,1014.42,0,0,0,0,0.030479
2018/06/13 02:07:00.000,n,237,4.68,3.96,5.04,13.5,85.4,1014.52,0,0,0,0,0.036583
2018/06/13 02:08:00.000,n,260,2.52,2.16,3.96,13.5,85.4,1014.52,0,0,0,0,0.034828
2018/06/13 02:09:00.002,n,270,3.24,1.8,5.04,13.5,85.4,1014.52,0,0,0,0,0.030479
2018/06/13 02:10:00.000,n,262,4.68,3.96,5.04,13.5,85.5,1014.62,0,0,0,0,0.033989
2018/06/13 02:11:00.000,n,194,3.24,2.52,3.96,13.5,85.7,1014.52,0,0,0,0,0.032234
2018/06/13 02:12:00.000,n,254,5.76,4.68,6.48,13.5,85.6,1014.52,0,0,0,0,0.02964
2018/06/13 02:13:00.009,n,107,0.72,0.36,1.44,13.4,85.5,1014.52,0,0,0,0,0.034828
2018/06/13 02:14:00.006,n,103,3.6,2.88,3.96,13.4,85.7,1014.42,0,0,0,0,0.033073
2018/06/13 02:15:00.003,n,185,1.08,0.72,1.08,13.4,85.6,1014.52,0,0,0,0,0.031357
2018/06/13 02:16:00.000,n,170,2.16,1.44,2.52,13.4,85.8,1014.52,0,0,0,0,0.031357
2018/06/13 02:17:00.000,n,252,3.24,3.24,3.6,13.4,85.7,1014.62,0,0,0,0,0.030479
2018/06/13 02:18:00.000,n,250,3.96,2.88,3.96,13.4,85.9,1014.62,0,0,0,0,0.031357
2018/06/13 02:19:00.000,n,307,2.16,0.72,3.24,13.4,85.8,1014.62,0,0,0,0,0.030479
2018/06/13 02:20:00.004,n,292,4.68,2.52,5.4,13.4,85.8,1014.62,0,0,0,0,0.032234
2018/06/13 02:21:00.001,n,274,6.12,2.88,8.28,13.3,85.3,1014.62,0,0,0,0,0.02964
2018/06/13 02:22:00.000,n,279,2.88,2.16,3.6,13.2,85.4,1014.52,0,0,0,0,0.027885
2018/06/13 02:23:00.011,n,111,1.44,0.36,2.88,13.2,86.2,1014.42,0,0,0,0,0.027885
2018/06/13 02:24:00.008,n,53,3.24,2.88,3.96,13.3,86.2,1014.42,0,0,0,0,0.027008
2018/06/13 02:25:00.000,n,195,2.88,2.52,3.24,13.3,86,1014.52,0,0,0,0,0.02964
2018/06/13 02:26:00.003,n,219,4.68,4.32,5.04,13.3,85.8,1014.62,0,0,0,0,0.027885
2018/06/13 02:27:00.000,n,257,6.48,5.76,7.56,13.2,85.6,1014.62,0,0,0,0,0.027885
2018/06/13 02:28:00.000,n,275,7.56,7.2,7.92,13.2,85.6,1014.62,0,0,0,0,0.028725
2018/06/13 02:29:00.000,n,272,5.76,4.68,7.56,13.2,85.6,1014.52,0,0,0,0,0.031357
2018/06/13 02:30:00.009,n,329,2.52,1.8,3.6,13.1,85.7,1014.52,0,0,0,0,0.027008
2018/06/13 02:31:00.006,n,48,4.68,4.32,5.76,13.1,86.4,1014.42,0,0,0,0,0.027885
2018/06/13 02:32:00.003,n,216,1.08,0.72,1.8,13.2,86.1,1014.52,0,0,0,0,0.024376
2018/06/13 02:33:00.000,n,223,3.24,2.52,3.6,13.2,86,1014.52,0,0,0,0,0.026131
2018/06/13 02:34:00.000,n,254,6.48,5.4,7.2,13.1,85.8,1014.62,0,0,0,0,0.024376
2018/06/13 02:35:00.000,n,262,5.76,5.04,6.84,13.1,85.5,1014.62,0,0,0,0,0.026131
2018/06/13 02:36:00.000,n,274,6.12,5.76,6.12,13,85.6,1014.62,0,0,0,0,0.025253
2018/06/13 02:37:00.005,n,226,1.44,0.72,2.52,13,85.9,1014.62,0,0,0,0,0.030479
2018/06/13 02:38:00.003,n,320,1.8,0.72,2.52,13,86.1,1014.52,0,0,0,0,0.026131
2018/06/13 02:39:00.000,n,44,2.52,0.72,3.6,13,86.2,1014.52,0,0,0,0,0.024376
2018/06/13 02:40:00.000,n,277,3.24,2.16,3.6,13,86.2,1014.52,0,0,0,0,0.024376
2018/06/13 02:41:00.010,n,249,2.88,2.52,3.6,13,86,1014.52,0,0,0,0,0.027885
2018/06/13 02:42:00.003,n,261,3.6,3.24,3.96,13,85.8,1014.52,0,0,0,0,0.02697
2018/06/13 02:43:00.000,n,251,1.8,1.8,2.16,12.9,85.9,1014.52,0,0,0,0,0.029602
2018/06/13 02:44:00.000,n,275,5.04,4.68,5.4,12.9,85.9,1014.52,0,0,0,0,0.030479
2018/06/13 02:45:00.000,n,259,5.04,3.6,5.4,12.9,85.9,1014.52,0,0,0,0,0.028763
2018/06/13 02:46:00.006,n,267,6.84,5.04,7.92,12.8,85.8,1014.52,0,0,0,0,0.026131
2018/06/13 02:47:00.004,n,279,5.04,4.68,5.4,12.8,85.8,1014.42,0,0,0,0,0.030479
2018/06/13 02:48:00.000,n,272,3.6,3.24,3.96,12.7,85.9,1014.42,0,0,0,0,0.031357
2018/06/13 02:49:00.000,n,268,3.6,3.24,3.96,12.7,85.9,1014.42,0,0,0,0,0.025253
2018/06/13 02:50:00.010,n,273,4.68,4.68,5.04,12.7,86,1014.42,0,0,0,0,0.025253
2018/06/13 02:51:00.008,n,223,2.88,2.52,3.24,12.7,86.1,1014.42,0,0,0,0,0.02697
2018/06/13 02:52:00.000,n,201,1.44,1.08,1.44,12.7,86.1,1014.42,0,0,0,0,0.026131
2018/06/13 02:53:00.001,n,255,2.16,1.44,2.52,12.7,86.1,1014.42,0,0,0,0,0.030479
2018/06/13 02:54:00.000,n,218,1.08,0.72,1.8,12.6,86.1,1014.42,0,0,0,0,0.021782
2018/06/13 02:55:00.000,n,210,1.08,0.72,1.08,12.6,86.1,1014.42,0,0,0,0,0.025253
2018/06/13 02:56:00.009,n,294,1.44,0.72,2.52,12.6,86.3,1014.42,0,0,0,0,0.027885
2018/06/13 02:57:00.006,n,349,1.44,0.72,2.52,12.6,86.5,1014.42,0,0,0,0,0.026131
2018/06/13 02:58:00.003,n,90,1.08,0.36,1.8,12.6,86.4,1014.42,0,0,0,0,0.026131
2018/06/13 02:59:00.000,n,244,1.08,0.36,1.8,12.6,86.5,1014.42,0,0,0,0,0.027885
2018/06/13 03:00:00.014,n,281,1.44,0.72,1.8,12.6,86.5,1014.42,0,0,0,0,0.024414
2018/06/13 03:01:00.000,n,259,4.32,3.6,5.04,12.6,86.3,1014.42,0,0,0,0,0.025253
2018/06/13 03:02:00.000,n,239,2.16,1.8,2.16,12.6,86.3,1014.42,0,0,0,0,0.023537
2018/06/13 03:03:00.000,n,262,3.6,3.24,3.96,12.6,86.3,1014.42,0,0,0,0,0.020905
2018/06/13 03:04:00.003,n,242,1.44,1.08,1.8,12.6,86.4,1014.32,0,0,0,0,0.020027
2018/06/13 03:05:00.001,n,282,4.68,4.32,5.4,12.6,86.2,1014.32,0,0,0,0,0.023537
2018/06/13 03:06:00.000,n,267,3.96,2.88,5.04,12.5,86.2,1014.32,0,0,0,0,0.022621
2018/06/13 03:07:00.011,n,277,2.88,1.44,3.6,12.5,86.2,1014.32,0,0,0,0,0.024414
2018/06/13 03:08:00.008,n,322,1.08,0.72,1.08,12.5,86.2,1014.32,0,0,0,0,0.021782
2018/06/13 03:09:00.005,n,286,1.8,1.44,2.16,12.5,86.3,1014.32,0,0,0,0,0.01915
2018/06/13 03:10:00.000,n,232,2.88,2.16,2.88,12.5,86.4,1014.32,0,0,0,0,0.023537
2018/06/13 03:11:00.000,n,239,3.96,3.24,4.32,12.5,86.3,1014.32,0,0,0,0,0.01915
2018/06/13 03:12:00.000,n,254,5.76,5.76,6.12,12.5,86.3,1014.32,0,0,0,0,0.017433
2018/06/13 03:13:00.000,n,272,3.24,2.52,4.32,12.4,86.3,1014.32,0,0,0,0,0.017433
2018/06/13 03:14:00.008,n,312,1.08,0.72,1.08,12.4,86.2,1014.32,0,0,0,0,0.033951
2018/06/13 03:15:00.002,n,226,1.44,1.08,1.8,12.4,86.2,1014.32,0,0,0,0,0.031357
2018/06/13 03:16:00.000,n,17,2.16,1.8,2.52,12.4,86.3,1014.22,0,0,0,0,0.034866
2018/06/13 03:17:00.012,n,281,2.16,1.44,3.24,12.4,86.2,1014.22,0,0,0,0,0.032234
2018/06/13 03:18:00.011,n,257,2.16,1.8,2.52,12.3,86.2,1014.22,0,0,0,0,0.039215
2018/06/13 03:19:00.000,n,216,1.8,1.44,2.52,12.3,86.2,1014.22,0,0,0,0,0.033112
2018/06/13 03:20:00.000,n,239,0.36,0.36,0.36,12.3,86.2,1014.22,0,0,0,0,0.032234
2018/06/13 03:21:00.003,n,218,1.44,1.08,1.44,12.3,86.2,1014.22,0,0,0,0,0.029602
2018/06/13 03:22:00.000,n,109,0.36,0,1.08,12.3,86.4,1014.22,0,0,0,0,0.034866
2018/06/13 03:23:00.000,n,132,2.16,1.8,2.52,12.3,86.6,1014.12,0,0,0,0,0.030518
2018/06/13 03:24:00.010,n,83,3.6,3.24,3.96,12.3,86.7,1014.12,0,0,0,0,0.033112
2018/06/13 03:25:00.007,n,60,3.6,2.88,3.6,12.3,86.7,1014.02,0,0,0,0,0.029602
2018/06/13 03:26:00.004,n,93,1.08,0.36,1.8,12.3,86.8,1014.02,0,0,0,0,0.027008
2018/06/13 03:27:00.002,n,167,1.8,1.08,1.8,12.3,86.6,1014.12,0,0,0,0,0.033951
2018/06/13 03:28:00.000,n,200,2.88,2.16,3.24,12.3,86.5,1014.12,0,0,0,0,0.027008
2018/06/13 03:29:00.000,n,282,4.32,3.96,4.32,12.3,86.5,1014.12,0,0,0,0,0.027885
2018/06/13 03:30:00.000,n,49,5.04,5.04,5.4,12.3,87.2,1014.02,0,0,0,0,0.028763
2018/06/13 03:31:00.005,n,89,2.16,1.8,3.24,12.4,87,1014.02,0,0,0,0,0.031357
2018/06/13 03:32:00.002,n,39,1.44,0.72,2.52,12.4,86.7,1014.02,0,0,0,0,0.034866
2018/06/13 03:33:00.000,n,194,0.72,0.36,1.08,12.4,86.3,1014.02,0,0,0,0,0.027885
2018/06/13 03:34:00.012,n,72,0.72,0.36,1.08,12.3,86.3,1014.02,0,0,0,0,0.021782
2018/06/13 03:35:00.010,n,245,3.6,3.24,3.6,12.3,86.5,1014.02,0,0,0,0,0.030518
2018/06/13 03:36:00.006,n,257,5.04,4.68,5.04,12.3,86.6,1014.12,0,0,0,0,0.025253
2018/06/13 03:37:00.000,n,255,3.96,2.88,4.68,12.3,86.5,1014.12,0,0,0,0,0.024414
2018/06/13 03:38:00.001,n,169,0.72,0.36,1.08,12.3,86.4,1014.12,0,0,0,0,0.033112
2018/06/13 03:39:00.000,n,127,3.6,1.8,4.68,12.2,86.4,1014.02,0,0,0,0,0.032234
2018/06/13 03:40:00.006,n,120,2.52,2.16,3.24,12.2,86.4,1014.02,0,0,0,0,0.034866
2018/06/13 03:41:00.004,n,102,2.88,1.8,3.6,12.2,86.6,1014.02,0,0,0,0,0.035706
2018/06/13 03:42:00.000,n,89,2.88,2.52,3.24,12.2,86.8,1014.02,0,0,0,0,0.035706
2018/06/13 03:43:00.000,n,152,1.44,1.08,1.8,12.2,86.5,1014.02,0,0,0,0,0.043564
2018/06/13 03:44:00.011,n,210,3.6,3.24,3.96,12.2,86.6,1014.02,0,0,0,0,0.032234
2018/06/13 03:45:00.008,n,188,2.52,2.16,2.88,12.2,86.5,1014.12,0,0,0,0,0.033112
2018/06/13 03:46:00.000,n,212,2.52,2.16,2.88,12.1,86.5,1014.12,0,0,0,0,0.031357
2018/06/13 03:47:00.002,n,250,3.24,2.88,3.96,12.1,86.6,1014.12,0,0,0,0,0.030518
2018/06/13 03:48:00.000,n,267,1.8,0.72,2.52,12.1,86.7,1014.12,0,0,0,0,0.02964
2018/06/13 03:49:00.000,n,323,1.08,0.72,1.44,12.1,86.8,1014.12,0,0,0,0,0.028763
2018/06/13 03:50:00.000,n,218,1.08,1.08,1.8,12.1,86.6,1014.12,0,0,0,0,0.028763
2018/06/13 03:51:00.007,n,2,2.52,1.8,3.96,12.1,86.7,1014.02,0,0,0,0,0.026131
2018/06/13 03:52:00.005,n,339,1.08,0.72,1.44,12.1,86.9,1014.02,0,0,0,0,0.028763
2018/06/13 03:53:00.001,n,0,0.36,0,0.72,12.2,86.8,1014.02,0,0,0,0,0.026131
2018/06/13 03:54:00.015,n,288,2.16,1.08,2.52,12.1,86.6,1014.02,0,0,0,0,0.027008
2018/06/13 03:55:00.000,n,97,1.8,1.44,2.52,12.1,86.6,1014.02,0,0,0,0,0.028763
2018/06/13 03:56:00.000,n,251,0.72,0,1.08,12.1,86.4,1014.12,0,0,0,0,0.025291
2018/06/13 03:57:00.000,n,249,3.24,2.52,4.32,12,86.5,1014.12,0,0,0,0,0.033989
2018/06/13 03:58:00.004,n,216,1.08,1.08,1.08,12,86.5,1014.12,0,0,0,0,0.025291
2018/06/13 03:59:00.001,n,155,0.36,0,0.72,12,86.5,1014.12,0,0,0,0,0.033989
2018/06/13 04:00:00.000,n,250,2.16,1.8,2.88,12,86.5,1014.02,0,0,0,0,0.026131
2018/06/13 04:01:00.011,n,263,3.24,2.88,3.6,12,86.5,1014.02,0,0,0,0,0.025291
2018/06/13 04:02:00.008,n,120,2.88,1.8,3.96,11.9,86.7,1014.02,0,0,0,0,0.026131
2018/06/13 04:03:00.005,n,182,3.6,3.24,4.32,11.9,86.8,1014.02,0,0,0,0,0.027008
2018/06/13 04:04:00.002,n,242,1.08,0.72,1.08,11.9,86.6,1014.02,0,0,0,0,0.025291
2018/06/13 04:05:00.000,n,236,3.96,3.6,3.96,11.9,86.7,1014.02,0,0,0,0,0.033112
2018/06/13 04:06:00.000,n,248,2.52,2.52,2.88,11.9,86.7,1014.02,0,0,0,0,0.024414
2018/06/13 04:07:00.000,n,219,0.72,0.36,1.08,11.9,86.6,1013.92,0,0,0,0,0.021782
2018/06/13 04:08:00.005,n,129,3.96,3.6,4.32,11.9,86.7,1013.92,0,0,0,0,0.020027
2018/06/13 04:09:00.003,n,199,3.96,2.88,4.68,11.9,86.7,1013.92,0,0,0,0,0.026131
2018/06/13 04:10:00.001,n,181,4.32,3.96,5.04,11.9,86.7,1014.02,0,0,0,0,0.027008
2018/06/13 04:11:00.000,n,213,2.16,1.8,2.16,11.9,86.8,1014.02,0,0,0,0,0.026131
2018/06/13 04:12:00.014,n,269,1.44,1.44,2.16,11.9,86.7,1013.92,0,0,0,0,0.023537
2018/06/13 04:13:00.000,n,290,1.8,0.72,2.88,11.8,86.8,1013.92,0,0,0,0,0.022659
2018/06/13 04:14:00.000,n,290,1.08,0.36,2.52,11.9,87,1014.02,0,0,0,0,0.024414
2018/06/13 04:15:00.005,n,288,1.08,0.36,2.88,11.9,87.1,1014.02,0,0,0,0,0.021782
2018/06/13 04:16:00.002,n,198,0.72,0.36,0.72,11.9,87,1014.02,0,0,0,0,0.024414
2018/06/13 04:17:00.000,n,112,2.52,1.8,3.6,11.9,86.8,1013.92,0,0,0,0,0.024414
2018/06/13 04:18:00.000,n,165,0.72,0.36,1.08,11.9,86.9,1013.92,0,0,0,0,0.026131
2018/06/13 04:19:00.010,n,187,3.24,2.52,3.6,11.8,86.9,1014.02,0,0,0,0,0.024414
2018/06/13 04:20:00.007,n,182,2.16,1.8,2.52,11.8,86.9,1014.02,0,0,0,0,0.020943
2018/06/13 04:21:00.004,n,238,3.6,2.52,4.68,11.8,87,1014.12,0,0,0,0,0.021782
2018/06/13 04:22:00.001,n,255,3.24,2.88,3.6,11.8,86.9,1014.12,0,0,0,0,0.027847
2018/06/13 04:23:00.000,n,252,4.32,3.96,5.04,11.8,86.8,1014.12,0,0,0,0,0.032196
2018/06/13 04:24:00.000,n,264,5.04,4.68,5.4,11.8,86.8,1014.12,0,0,0,0,0.032196
2018/06/13 04:25:00.000,n,255,5.04,3.96,5.4,11.8,86.9,1014.12,0,0,0,0,0.029602
2018/06/13 04:26:00.004,n,265,3.24,2.88,3.6,11.8,86.9,1014.12,0,0,0,0,0.029602
2018/06/13 04:27:00.001,n,356,1.08,0.72,1.44,11.8,87.2,1014.12,0,0,0,0,0.033073
2018/06/13 04:28:00.000,n,275,1.08,0.36,1.8,11.8,87.3,1014.12,0,0,0,0,0.030479
2018/06/13 04:29:00.012,n,48,2.16,0.72,3.96,11.8,87.2,1014.12,0,0,0,0,0.026131
2018/06/13 04:30:00.009,n,29,1.08,0.36,1.44,11.8,87.3,1014.12,0,0,0,0,0.029602
2018/06/13 04:31:00.000,n,248,2.88,2.52,3.6,11.9,87.3,1014.12,0,0,0,0,0.026131
2018/06/13 04:32:00.003,n,176,1.44,1.08,1.44,11.9,87.1,1014.12,0,0,0,0,0.023499
2018/06/13 04:33:00.001,n,34,0.72,0.36,1.08,11.8,86.9,1014.12,0,0,0,0,0.027008
2018/06/13 04:34:00.000,n,274,2.88,2.16,3.24,11.8,86.9,1014.12,0,0,0,0,0.028725
2018/06/13 04:35:00.000,n,214,1.08,0.72,1.44,11.8,86.8,1014.12,0,0,0,0,0.033073
2018/06/13 04:36:00.008,n,133,2.16,1.08,3.24,11.8,87.1,1014.02,0,0,0,0,0.027008
2018/06/13 04:37:00.006,n,97,2.52,1.8,3.24,11.8,87,1014.02,0,0,0,0,0.026131
2018/06/13 04:38:00.003,n,174,1.08,0.72,1.44,11.8,87.1,1014.02,0,0,0,0,0.025253
2018/06/13 04:39:00.000,n,296,1.44,1.08,1.8,11.8,87,1014.02,0,0,0,0,0.029602
2018/06/13 04:40:00.000,n,196,0.36,0.36,0.72,11.8,87,1014.02,0,0,0,0,0.028725
2018/06/13 04:41:00.000,n,136,0.36,0.36,0.36,11.8,87,1014.12,0,0,0,0,0.029602
2018/06/13 04:42:00.000,n,52,0.36,0.36,1.08,11.7,87.1,1014.12,0,0,0,0,0.021744
2018/06/13 04:43:00.005,n,240,3.6,3.24,3.6,11.7,87,1014.22,0,0,0,0,0.023499
2018/06/13 04:44:00.002,n,334,1.44,0.72,1.8,11.7,87.1,1014.22,0,0,0,0,0.028725
2018/06/13 04:45:00.000,n,282,0.72,0.36,1.08,11.7,87.1,1014.22,0,0,0,0,0.031357
2018/06/13 04:46:00.000,n,305,0.72,0.36,1.08,11.7,87.3,1014.22,0,0,0,0,0.030479
2018/06/13 04:47:00.011,n,100,1.44,0.72,1.8,11.7,87,1014.22,0,0,0,0,0.030479
2018/06/13 04:48:00.007,n,59,2.16,1.08,2.52,11.7,87,1014.22,0,0,0,0,0.031357
2018/06/13 04:49:00.000,n,210,0.36,0.36,0.72,11.7,87,1014.22,0,0,0,0,0.022659
2018/06/13 04:50:00.001,n,238,2.52,1.44,3.24,11.7,87,1014.22,0,0,0,0,0.023499
2018/06/13 04:51:00.000,n,264,4.68,4.32,5.04,11.6,87.1,1014.22,0,0,0,0,0.023499
2018/06/13 04:52:00.000,n,256,1.44,0.72,2.16,11.7,87.5,1014.22,0,0,0,0,0.023499
2018/06/13 04:53:00.000,n,233,0.72,0.36,0.72,11.7,87.4,1014.22,0,0,0,0,0.027847
2018/06/13 04:54:00.008,n,204,0.36,0,0.36,11.7,87.3,1014.12,0,0,0,0,0.022659
2018/06/13 04:55:00.005,n,176,0.72,0.72,1.08,11.7,87.1,1014.22,0,0,0,0,0.030479
2018/06/13 04:56:00.003,n,247,1.44,1.08,1.8,11.7,87.1,1014.22,0,0,0,0,0.020866